Meriden, CT

1:52 AM EDT on March 24, 2017 (GMT -0400)
Meriden Markham Municipal

Weather History for KMMK - September, 2013

Change the Weather History Date:

Sunday, September 1, 2013

  Actual Average (KOXC) Record (KOXC)
Temperature  
Mean Temperature 78 °F -  
Max Temperature 82 °F 73 °F 89 °F (2010)
Min Temperature 73 °F 55 °F 51 °F (1996)
Cooling Degree Days 12    
Growing Degree Days 28 (Base 50)    
Moisture  
Dew Point 71 °F    
Average Humidity 86    
Maximum Humidity 94    
Minimum Humidity 69    
Precipitation  
Precipitation 0.28 in - - ()
Sea Level Pressure  
Sea Level Pressure 29.85 in    
Wind  
Wind Speed 4 mph (SSE)    
Max Wind Speed 9 mph    
Max Gust Speed -    
Visibility 8 miles    
Events Fog , Rain    
Averages and records for this station are not official NWS values.
T = Trace of Precipitation, MM = Missing Value Source: NWS Daily Summary

Daily Weather History Graph

Daily Weather History Graph

Search for Another Location

Airport or City:

Trip Planner

Search our weather history database for the weather conditions in past years. The results will help you decide how hot, cold, wet, or windy it might be!

Date:

Astronomy

Sep. 01, 2013 Rise Set
Actual Time 6:17 AM EDT 7:24 PM EDT
Civil Twilight 5:49 AM EDT 7:52 PM EDT
Nautical Twilight 5:15 AM EDT 8:26 PM EDT
Astronomical Twilight 4:39 AM EDT 9:01 PM EDT
Moon 2:35 AM EDT (9/1) 5:01 PM EDT (9/1)
Length of Visible Light 14h 03m
Length of Day
13h 06m
Waning Crescent, 14% of the Moon is Illuminated
Sep 1
Waning Crescent
Sep 5
New
Sep 12
First Quarter
Sep 19
Full
Sep 26
Last Quarter

Hourly Weather History & Observations

Time (EDT) Temp. Heat Index Dew Point Humidity Pressure Visibility Wind Dir Wind Speed Gust Speed Precip Events Conditions
12:53 AM 73.0 °F - 71.1 °F 93% 29.83 in 8.0 mi Calm Calm - N/A   Mostly Cloudy
1:53 AM 73.0 °F - 70.0 °F 90% 29.83 in 8.0 mi Calm Calm - N/A   Overcast
2:53 AM 73.0 °F - 70.0 °F 90% 29.82 in 8.0 mi Calm Calm - N/A   Scattered Clouds
3:22 AM 73.4 °F - 71.6 °F 94% 29.83 in 7.0 mi North 4.6 mph - N/A   Mostly Cloudy
3:53 AM 73.0 °F - 71.1 °F 93% 29.83 in 7.0 mi Calm Calm - N/A   Overcast
4:53 AM 73.0 °F - 71.1 °F 93% 29.82 in 8.0 mi South 3.5 mph - N/A   Overcast
5:35 AM 73.4 °F - 71.6 °F 94% 29.84 in 9.0 mi South 4.6 mph - N/A   Overcast
5:53 AM 73.0 °F - 71.1 °F 93% 29.83 in 9.0 mi South 4.6 mph - N/A   Overcast
6:09 AM 73.4 °F - 71.6 °F 94% 29.84 in 9.0 mi SSE 3.5 mph - N/A   Overcast
6:43 AM 73.4 °F - 71.6 °F 94% 29.86 in 1.8 mi Calm Calm - 0.00 in Rain Heavy Rain
6:53 AM 73.0 °F - 71.1 °F 93% 29.86 in 0.5 mi Variable 3.5 mph - 0.08 in Fog , Rain Heavy Rain
7:00 AM 73.4 °F - 71.6 °F 94% 29.86 in 0.5 mi Calm Calm - 0.15 in Fog , Rain Heavy Rain
7:05 AM 73.4 °F - 71.6 °F 94% 29.86 in 1.5 mi Calm Calm - 0.20 in Rain Rain
7:09 AM 73.4 °F - 71.6 °F 94% 29.86 in 2.5 mi SSE 3.5 mph - 0.20 in Rain Rain
7:12 AM 73.4 °F - 71.6 °F 94% 29.86 in 3.0 mi SSE 3.5 mph - 0.20 in Rain Light Rain
7:49 AM 73.4 °F - 71.6 °F 94% 29.86 in 5.0 mi Calm Calm - 0.20 in   Overcast
7:53 AM 73.0 °F - 71.1 °F 93% 29.85 in 4.0 mi Calm Calm - 0.20 in   Overcast
8:05 AM 73.4 °F - 71.6 °F 94% 29.86 in 4.0 mi South 4.6 mph - N/A   Overcast
8:20 AM 73.4 °F - 71.6 °F 94% 29.87 in 5.0 mi South 5.8 mph - N/A   Overcast
8:50 AM 75.2 °F - 71.6 °F 89% 29.85 in 9.0 mi Calm Calm - N/A   Mostly Cloudy
8:53 AM 75.0 °F - 72.0 °F 90% 29.85 in 9.0 mi Variable 3.5 mph - N/A   Scattered Clouds
9:06 AM 75.2 °F - 71.6 °F 89% 29.86 in 9.0 mi South 4.6 mph - N/A   Mostly Cloudy
9:50 AM 75.2 °F - 71.6 °F 89% 29.86 in 8.0 mi SSE 4.6 mph - 0.00 in Rain Light Rain
9:53 AM 75.0 °F - 72.0 °F 90% 29.86 in 8.0 mi SSE 4.6 mph - 0.00 in Rain Light Rain
10:00 AM 75.2 °F - 71.6 °F 89% 29.86 in 8.0 mi SSE 4.6 mph - 0.00 in Rain Light Rain
10:34 AM 77.0 °F - 71.6 °F 83% 29.86 in 10.0 mi South 9.2 mph - 0.00 in   Mostly Cloudy
10:53 AM 77.0 °F - 72.0 °F 84% 29.86 in 9.0 mi South 6.9 mph - 0.00 in   Overcast
11:53 AM 78.1 °F - 73.0 °F 84% 29.86 in 8.0 mi SSE 4.6 mph - N/A   Overcast
12:07 PM 78.8 °F - 71.6 °F 78% 29.86 in 9.0 mi SSE 6.9 mph - N/A   Overcast
12:53 PM 79.0 °F - 72.0 °F 79% 29.85 in 10.0 mi SSE 9.2 mph - N/A   Mostly Cloudy
1:08 PM 78.8 °F - 71.6 °F 78% 29.85 in 10.0 mi SSE 5.8 mph - N/A   Mostly Cloudy
1:41 PM 80.6 °F 84.6 °F 71.6 °F 74% 29.85 in 10.0 mi South 8.1 mph - N/A   Scattered Clouds
1:53 PM 79.0 °F - 72.0 °F 79% 29.85 in 10.0 mi South 9.2 mph - N/A   Partly Cloudy
2:50 PM 80.6 °F 83.9 °F 69.8 °F 70% 29.85 in 10.0 mi South 9.2 mph - N/A   Mostly Cloudy
2:53 PM 81.0 °F 84.4 °F 70.0 °F 69% 29.84 in 10.0 mi South 9.2 mph - N/A   Mostly Cloudy
3:11 PM 82.4 °F 87.2 °F 71.6 °F 70% 29.84 in 10.0 mi SE 8.1 mph - N/A   Scattered Clouds
3:19 PM 80.6 °F 84.6 °F 71.6 °F 74% 29.84 in 10.0 mi SSE 6.9 mph - N/A   Mostly Cloudy
3:28 PM 80.6 °F 84.6 °F 71.6 °F 74% 29.84 in 10.0 mi South 9.2 mph - N/A   Partly Cloudy
3:53 PM 80.1 °F 83.8 °F 72.0 °F 76% 29.82 in 10.0 mi South 8.1 mph - N/A   Clear
4:53 PM 80.1 °F 84.2 °F 73.0 °F 79% 29.82 in 10.0 mi South 5.8 mph - N/A   Scattered Clouds
5:01 PM 78.8 °F - 71.6 °F 78% 29.83 in 10.0 mi SSE 8.1 mph - N/A   Mostly Cloudy
5:32 PM 80.6 °F 84.6 °F 71.6 °F 74% 29.83 in 10.0 mi South 9.2 mph - N/A   Scattered Clouds
5:53 PM 79.0 °F - 72.0 °F 79% 29.83 in 10.0 mi South 6.9 mph - N/A   Mostly Cloudy
6:45 PM 77.0 °F - 71.6 °F 83% 29.84 in 10.0 mi SSE 8.1 mph - N/A   Mostly Cloudy
6:53 PM 77.0 °F - 72.0 °F 84% 29.83 in 10.0 mi SSE 6.9 mph - N/A   Mostly Cloudy
7:12 PM 75.2 °F - 71.6 °F 89% 29.83 in 10.0 mi SSE 5.8 mph - N/A   Mostly Cloudy
7:43 PM 75.2 °F - 71.6 °F 89% 29.83 in 10.0 mi SSE 5.8 mph - N/A   Overcast
7:53 PM 75.9 °F - 71.1 °F 85% 29.83 in 10.0 mi South 8.1 mph - N/A   Overcast
8:53 PM 75.0 °F - 71.1 °F 87% 29.85 in 10.0 mi South 5.8 mph - N/A   Overcast
9:33 PM 75.2 °F - 71.6 °F 89% 29.86 in 10.0 mi SSE 4.6 mph - N/A   Overcast
9:53 PM 75.0 °F - 71.1 °F 87% 29.86 in 10.0 mi South 5.8 mph - N/A   Overcast
10:17 PM 75.2 °F - 71.6 °F 89% 29.85 in 10.0 mi South 3.5 mph - N/A   Overcast
10:53 PM 75.0 °F - 71.1 °F 87% 29.85 in 10.0 mi SSE 4.6 mph - N/A   Overcast
11:43 PM 75.2 °F - 71.6 °F 89% 29.84 in 9.0 mi SSE 4.6 mph - N/A   Overcast
11:53 PM 75.0 °F - 71.1 °F 87% 29.84 in 9.0 mi SSE 3.5 mph - N/A   Overcast